Hickory, NC

1:24 PM EDT on September 23, 2017 (GMT -0400)
Hickory Regional

Weather History for KHKY - November, 2010

Change the Weather History Date:

Tuesday, November 30, 2010

  Actual Average Record
Temperature  
Mean Temperature 52 °F -  
Max Temperature 66 °F 52 °F 71 °F (1970)
Min Temperature 39 °F 33 °F 14 °F (1976)
Degree Days  
Heating Degree Days 12    
Growing Degree Days 2 (Base 50)    
Moisture  
Dew Point 47 °F    
Average Humidity 96    
Maximum Humidity 100    
Minimum Humidity 93    
Precipitation  
Precipitation 2.76 in - - ()
Sea Level Pressure  
Sea Level Pressure 30.02 in    
Wind  
Wind Speed 4 mph (NW)    
Max Wind Speed 14 mph    
Max Gust Speed 23 mph    
Visibility 3 miles    
Events Rain    
Averages and records for this station are not official NWS values.
T = Trace of Precipitation, MM = Missing Value Source: NWS Daily Summary

Daily Weather History Graph

Daily Weather History Graph

Search for Another Location

Airport or City:

Trip Planner

Search our weather history database for the weather conditions in past years. The results will help you decide how hot, cold, wet, or windy it might be!

Date:

Astronomy

Nov. 30, 2010 Rise Set
Actual Time 7:16 AM EST 5:12 PM EST
Civil Twilight 6:48 AM EST 5:40 PM EST
Nautical Twilight 6:16 AM EST 6:11 PM EST
Astronomical Twilight 5:45 AM EST 6:42 PM EST
Moon 1:39 AM EST (11/30) 1:34 PM EST (11/30)
Length of Visible Light 10h 52m
Length of Day
9h 56m
Waning Crescent, 29% of the Moon is Illuminated
Nov 30
Waning Crescent
Dec 5
New
Dec 13
First Quarter
Dec 21
Full
Dec 27
Last Quarter

Hourly Weather History & Observations

Time (EST) Temp. Windchill Dew Point Humidity Pressure Visibility Wind Dir Wind Speed Gust Speed Precip Events Conditions
12:33 AM 41.0 °F 38.0 °F 39.2 °F 93% 30.29 in 2.5 mi NW 4.6 mph - 0.05 in Rain Rain
12:44 AM 41.0 °F 39.0 °F 39.2 °F 93% 30.28 in 3.0 mi North 3.5 mph - 0.06 in Rain Rain
12:53 AM 41.0 °F 39.0 °F 39.0 °F 93% 30.26 in 3.0 mi North 3.5 mph - 0.07 in Rain Light Rain
1:01 AM 41.0 °F 39.0 °F 39.2 °F 93% 30.27 in 3.0 mi NNW 3.5 mph - 0.00 in Rain Light Rain
1:31 AM 39.2 °F 34.2 °F 39.2 °F 100% 30.25 in 2.5 mi NNW 6.9 mph - 0.04 in Rain Rain
1:43 AM 41.0 °F 36.4 °F 39.2 °F 93% 30.24 in 3.0 mi North 6.9 mph - 0.05 in Rain Light Rain
1:53 AM 41.0 °F 38.0 °F 39.0 °F 93% 30.22 in 4.0 mi North 4.6 mph - 0.05 in Rain Light Rain
2:53 AM 41.0 °F 38.0 °F 39.9 °F 96% 30.20 in 1.8 mi WNW 4.6 mph - 0.09 in Rain Heavy Rain
3:03 AM 41.0 °F 39.0 °F 39.2 °F 93% 30.21 in 1.8 mi Variable 3.5 mph - 0.02 in Rain Rain
3:17 AM 41.0 °F 39.0 °F 39.2 °F 93% 30.19 in 2.0 mi NNW 3.5 mph - 0.04 in Rain Light Rain
3:46 AM 41.0 °F 36.4 °F 39.2 °F 93% 30.20 in 1.8 mi WNW 6.9 mph - 0.08 in Rain Rain
4:03 AM 41.0 °F 36.4 °F 39.2 °F 93% 30.20 in 1.5 mi WNW 6.9 mph - 0.06 in Rain Heavy Rain
4:16 AM 41.0 °F 38.0 °F 39.2 °F 93% 30.19 in 2.0 mi WNW 4.6 mph - 0.10 in Rain Heavy Rain
4:29 AM 41.0 °F 39.0 °F 39.2 °F 93% 30.18 in 2.5 mi Variable 3.5 mph - 0.13 in Rain Rain
4:34 AM 41.0 °F 38.0 °F 39.2 °F 93% 30.18 in 3.0 mi NNW 4.6 mph - 0.13 in Rain Light Rain
4:46 AM 41.0 °F 39.0 °F 39.2 °F 93% 30.17 in 3.0 mi NNW 3.5 mph - 0.14 in Rain Light Rain
4:53 AM 41.0 °F - 39.9 °F 96% 30.16 in 2.5 mi Calm Calm - 0.15 in Rain Rain
5:18 AM 41.0 °F 38.0 °F 39.2 °F 93% 30.17 in 1.8 mi WNW 4.6 mph - 0.05 in Rain Heavy Rain
5:29 AM 41.0 °F 39.0 °F 39.2 °F 93% 30.17 in 2.0 mi NW 3.5 mph - 0.07 in Rain Rain
5:53 AM 41.0 °F 38.0 °F 39.9 °F 96% 30.16 in 2.5 mi NNW 4.6 mph - 0.10 in Rain Rain
6:15 AM 42.8 °F 41.1 °F 41.0 °F 93% 30.16 in 3.0 mi North 3.5 mph - 0.02 in Rain Light Rain
6:19 AM 42.8 °F 41.1 °F 41.0 °F 93% 30.16 in 2.5 mi North 3.5 mph - 0.02 in Rain Light Rain
6:43 AM 42.8 °F 39.3 °F 41.0 °F 93% 30.16 in 3.0 mi North 5.8 mph - 0.04 in Rain Light Rain
7:04 AM 42.8 °F 40.1 °F 42.8 °F 100% 30.14 in 3.0 mi NNE 4.6 mph - 0.01 in Rain Light Rain
7:11 AM 42.8 °F 39.3 °F 42.8 °F 100% 30.14 in 2.5 mi NNE 5.8 mph - 0.01 in Rain Light Rain
7:19 AM 42.8 °F 41.1 °F 42.8 °F 100% 30.14 in 5.0 mi North 3.5 mph - 0.01 in Rain Light Rain
7:34 AM 42.8 °F 40.1 °F 42.8 °F 100% 30.13 in 2.5 mi NNE 4.6 mph - 0.03 in Rain Light Rain
7:42 AM 42.8 °F 41.1 °F 42.8 °F 100% 30.13 in 3.0 mi NNW 3.5 mph - 0.03 in Rain Light Rain
7:50 AM 42.8 °F 39.3 °F 42.8 °F 100% 30.13 in 2.5 mi North 5.8 mph - 0.05 in Rain Rain
7:53 AM 43.0 °F 41.3 °F 42.1 °F 97% 30.11 in 2.0 mi North 3.5 mph - 0.05 in Rain Light Rain
8:03 AM 42.8 °F 41.1 °F 42.8 °F 100% 30.12 in 1.2 mi North 3.5 mph - 0.02 in Rain Rain
8:19 AM 42.8 °F 41.1 °F 42.8 °F 100% 30.12 in 1.8 mi North 3.5 mph - 0.02 in Rain Light Rain
8:26 AM 44.6 °F - 42.8 °F 93% 30.12 in 1.8 mi Calm Calm - 0.03 in Rain Rain
8:53 AM 43.0 °F 41.3 °F 42.1 °F 97% 30.09 in 2.0 mi NNW 3.5 mph - 0.06 in Rain Rain
9:03 AM 42.8 °F 38.6 °F 42.8 °F 100% 30.11 in 1.5 mi West 6.9 mph - 0.03 in Rain Rain
9:25 AM 42.8 °F - 42.8 °F 100% 30.10 in 1.5 mi Calm Calm - 0.10 in Rain Rain
9:28 AM 42.8 °F - 42.8 °F 100% 30.10 in 2.5 mi Calm Calm - 0.10 in Rain Light Rain
9:35 AM 42.8 °F - 42.8 °F 100% 30.10 in 1.8 mi Calm Calm - 0.13 in Rain Heavy Rain
9:53 AM 43.0 °F 40.3 °F 42.1 °F 97% 30.08 in 1.5 mi WNW 4.6 mph - 0.19 in Rain Rain
10:01 AM 42.8 °F 40.1 °F 42.8 °F 100% 30.11 in 2.0 mi WNW 4.6 mph - 0.02 in Rain Light Rain
10:08 AM 42.8 °F 41.1 °F 42.8 °F 100% 30.10 in 1.8 mi NW 3.5 mph - 0.03 in Rain Rain
10:12 AM 44.6 °F 42.2 °F 42.8 °F 93% 30.10 in 2.5 mi NW 4.6 mph - 0.03 in Rain Light Rain
10:29 AM 44.6 °F - 42.8 °F 93% 30.08 in 5.0 mi Calm Calm - 0.04 in Rain Light Rain
10:41 AM 44.6 °F - 42.8 °F 93% 30.08 in 5.0 mi Calm Calm - 0.04 in Rain Light Rain
10:49 AM 44.6 °F 42.2 °F 42.8 °F 93% 30.07 in 1.8 mi North 4.6 mph - 0.07 in Rain Heavy Rain
10:53 AM 45.0 °F 41.8 °F 43.0 °F 93% 30.05 in 1.5 mi North 5.8 mph - 0.07 in Rain Light Rain
11:16 AM 44.6 °F 41.4 °F 44.6 °F 100% 30.05 in 2.0 mi North 5.8 mph - 0.00 in Rain Light Rain
11:21 AM 44.6 °F 43.1 °F 44.6 °F 100% 30.05 in 1.8 mi Variable 3.5 mph - 0.00 in   Overcast
11:53 AM 45.0 °F 41.8 °F 44.1 °F 97% 30.02 in 1.0 mi WNW 5.8 mph - 0.10 in Rain Heavy Rain
12:06 PM 46.4 °F 45.2 °F 44.6 °F 93% 30.02 in 2.5 mi WNW 3.5 mph - 0.01 in Rain Light Rain
12:11 PM 46.4 °F - 44.6 °F 93% 30.02 in 3.0 mi Calm Calm - 0.01 in Rain Light Rain
12:16 PM 46.4 °F 45.2 °F 44.6 °F 93% 30.01 in 1.8 mi Variable 3.5 mph - 0.04 in Rain Rain
12:32 PM 46.4 °F - 44.6 °F 93% 30.00 in 2.5 mi Calm Calm - 0.06 in Rain Rain
12:53 PM 46.0 °F 43.9 °F 45.0 °F 96% 29.98 in 2.0 mi WNW 4.6 mph - 0.08 in Rain Rain
1:08 PM 46.4 °F 44.3 °F 46.4 °F 100% 29.99 in 1.2 mi West 4.6 mph - 0.05 in Rain Heavy Rain
1:16 PM 46.4 °F 43.5 °F 44.6 °F 93% 29.98 in 2.0 mi West 5.8 mph - 0.06 in Rain Light Rain
1:24 PM 46.4 °F 44.3 °F 44.6 °F 93% 29.98 in 5.0 mi WNW 4.6 mph - 0.06 in Rain Light Rain
1:38 PM 46.4 °F - 44.6 °F 93% 29.97 in 5.0 mi Calm Calm - 0.06 in Rain Light Rain
1:53 PM 46.9 °F - 46.0 °F 97% 29.95 in 5.0 mi WNW 3.5 mph - 0.07 in Rain Light Rain
2:10 PM 46.4 °F - 46.4 °F 100% 29.96 in 2.0 mi Calm Calm - 0.03 in Rain Heavy Rain
2:49 PM 48.2 °F - 46.4 °F 93% 29.94 in 4.0 mi Calm Calm - 0.08 in Rain Light Rain
2:53 PM 48.0 °F - 46.9 °F 96% 29.91 in 5.0 mi Calm Calm - 0.08 in Rain Light Rain
3:06 PM 48.2 °F - 46.4 °F 93% 29.93 in 2.5 mi Calm Calm - 0.02 in Rain Light Rain
3:14 PM 48.2 °F - 46.4 °F 93% 29.92 in 5.0 mi ENE 3.5 mph - 0.03 in Rain Light Rain
3:25 PM 48.2 °F - 48.2 °F 100% 29.92 in 1.8 mi West 5.8 mph - 0.04 in Rain Light Rain
3:50 PM 50.0 °F - 48.2 °F 94% 29.91 in 2.5 mi ENE 3.5 mph - 0.06 in Rain Light Rain
3:53 PM 50.0 °F - 48.0 °F 93% 29.88 in 2.0 mi ENE 3.5 mph - 0.06 in Rain Light Rain
4:18 PM 55.4 °F - 55.4 °F 100% 29.90 in 0.8 mi Calm Calm - 0.00 in   Overcast
4:31 PM 59.0 °F - 57.2 °F 94% 29.89 in 1.8 mi Variable 4.6 mph - 0.00 in   Overcast
4:36 PM 60.8 °F - 59.0 °F 94% 29.89 in 3.0 mi Variable 4.6 mph - 0.00 in   Overcast
4:53 PM 62.1 °F - 61.0 °F 96% 29.86 in 4.0 mi Variable 5.8 mph - 0.01 in   Overcast
5:35 PM 62.6 °F - 62.6 °F 100% 29.87 in 7.0 mi SSE 6.9 mph - 0.00 in Rain Light Rain
5:53 PM 63.0 °F - 62.1 °F 97% 29.82 in 7.0 mi Variable 5.8 mph - 0.00 in   Overcast
6:53 PM 63.0 °F - 61.0 °F 93% 29.80 in 7.0 mi Variable 5.8 mph - 0.04 in Rain Light Rain
7:53 PM 63.0 °F - 62.1 °F 97% 29.76 in 6.0 mi Variable 5.8 mph 21.9 mph 0.01 in Rain Light Rain
8:53 PM 63.0 °F - 62.1 °F 97% 29.73 in 7.0 mi South 8.1 mph - 0.03 in Rain Light Rain
9:53 PM 64.0 °F - 63.0 °F 96% 29.69 in 4.0 mi South 8.1 mph - 0.23 in Rain Heavy Rain
10:41 PM 64.4 °F - 64.4 °F 100% 29.72 in 3.0 mi South 8.1 mph - 0.19 in Rain Heavy Rain
10:46 PM 64.4 °F - 64.4 °F 100% 29.72 in 2.5 mi South 10.4 mph 17.3 mph 0.23 in Rain Heavy Rain
10:53 PM 64.9 °F - 64.0 °F 97% 29.70 in 2.0 mi SW 13.8 mph 19.6 mph 0.30 in Rain Heavy Rain
11:01 PM 64.4 °F - 64.4 °F 100% 29.73 in 0.8 mi WSW 13.8 mph 23.0 mph 0.43 in Rain Heavy Rain
11:17 PM 64.4 °F - 64.4 °F 100% 29.72 in 2.0 mi SW 8.1 mph - 0.77 in Rain Heavy Rain
11:21 PM 64.4 °F - 64.4 °F 100% 29.72 in 3.0 mi SSW 8.1 mph - 0.78 in Rain Rain
11:34 PM 66.2 °F - 64.4 °F 94% 29.71 in 6.0 mi SSW 8.1 mph - 0.80 in Rain Rain
11:41 PM 64.4 °F - 64.4 °F 100% 29.71 in 5.0 mi South 5.8 mph - 0.83 in Rain Heavy Rain
11:50 PM 64.4 °F - 64.4 °F 100% 29.72 in 3.0 mi South 6.9 mph - 0.89 in Rain Heavy Rain
11:53 PM 64.0 °F - 64.0 °F 100% 29.68 in 2.5 mi South 5.8 mph - 0.92 in Rain Heavy Rain